Theta_e
303 302 302 304 304 306 311 312 311 307 307 312 314 318 316 316 318 315 315 314 317 318 317 320 320 319 316 306 305 307 305 303 307 307 304 303 305 304 303 312 307 301 301 304
304 303 303 302 302 305 308 310 309 306 306 314 313 311 313 313 315 315 315 316 314 315 318 319 318 317 312 306 307 308 306 308 313 310 305 303 305 304 303 302 303 307 305 308
303 303 302 302 304 302 306 307 307 306 306 306 311 312 312 314 310 313 313 314 313 315 317 316 317 316 311 305 305 310 309 309 309 314 308 304 305 304 303 306 307 309 308 308
301 301 301 301 301 303 303 307 307 304 307 307 310 309 310 313 314 310 310 311 313 314 316 316 316 313 313 311 309 309 310 312 309 308 306 305 305 307 306 306 306 309 309 306
299 300 299 300 301 301 303 305 306 303 302 303 307 309 309 310 309 309 309 309 309 309 313 312 311 311 310 308 308 310 309 311 307 306 306 307 309 308 307 307 307 307 307 308
299 300 300 299 302 301 303 303 304 305 306 304 305 306 306 306 307 307 307 307 308 308 308 307 307 308 309 309 307 308 308 309 307 308 305 305 308 306 306 307 306 307 308 307
299 298 299 300 299 301 302 303 304 305 305 305 305 305 305 306 305 306 305 305 307 305 303 303 303 303 304 304 305 307 308 309 308 306 305 307 301 299 302 305 305 304 304 303
300 297 297 298 298 299 300 301 303 303 303 304 304 304 304 303 304 305 304 304 303 302 303 304 304 302 302 302 303 304 306 307 308 307 303 303 304 302 300 302 302 299 302 300
299 299 299 297 299 299 299 299 297 301 300 302 302 304 304 304 303 301 303 299 298 302 304 304 303 304 302 303 301 299 304 306 307 305 308 308 302 297 295 297 301 295 295 295
299 299 299 299 297 297 297 299 299 299 298 299 301 303 304 303 303 303 301 301 301 301 305 307 305 304 301 302 302 301 303 306 307 308 309 308 304 294 294 303 300 292 293 293
298 298 299 299 299 298 298 296 297 299 300 298 300 301 303 302 303 305 301 302 301 301 306 307 305 305 301 302 299 298 301 303 304 306 308 307 293 294 299 297 289 290 289 290
297 297 298 298 299 299 299 298 296 297 299 296 297 299 301 302 302 302 300 302 300 302 304 304 303 305 302 301 304 296 302 300 301 302 302 295 292 295 293 289 290 288 289 288
297 297 297 296 297 298 299 297 296 297 293 295 294 297 299 300 302 302 302 297 300 299 298 299 300 303 300 301 300 296 295 294 298 298 296 294 291 290 290 288 289 288 288 288
296 297 297 296 296 297 298 298 296 296 294 296 296 293 294 294 297 299 300 299 297 296 297 298 299 301 299 300 297 297 295 292 294 294 293 290 289 287 289 288 287 286 286 286
296 296 296 296 296 296 297 297 295 296 295 297 295 290 291 292 292 294 296 297 295 295 296 298 299 297 297 291 291 291 289 293 294 296 294 295 293 289 286 286 286 286 286 285
295 295 296 296 295 296 296 294 296 296 296 295 295 289 288 288 291 293 295 295 294 296 298 297 295 291 297 295 296 292 288 288 291 293 289 288 285 284 285 286 285 285 285 285
295 295 295 295 295 295 294 293 294 296 296 294 294 292 288 288 290 290 290 290 292 294 295 295 294 292 294 295 292 291 288 287 286 286 285 287 285 286 284 284 285 287 285 285
295 296 295 295 295 295 295 293 295 295 294 293 295 286 287 288 290 290 289 291 291 291 293 290 291 289 291 292 289 288 285 284 284 284 284 284 282 281 282 283 283 282 282 282
295 296 296 295 294 292 292 294 295 295 294 295 288 286 286 287 287 288 289 290 290 289 289 290 290 290 290 290 288 286 284 285 284 282 281 281 281 281 281 281 281 281 281 281
296 296 292 290 289 291 292 293 292 291 290 289 290 287 288 286 287 288 287 288 291 287 288 287 289 287 286 285 283 282 282 282 281 281 281 281 281 280 280 280 279 280 280 280
292 289 286 287 289 289 288 288 289 286 286 289 287 285 286 286 285 288 288 288 289 289 285 287 284 284 279 275 276 275 274 278 276 277 278 280 278 278 278 279 279 280 280 279
289 288 287 287 284 282 287 286 285 285 286 285 283 284 286 287 288 289 289 288 286 287 276 279 280 277 279 275 273 273 273 276 277 278 277 277 278 278 277 277 278 279 279 279
290 285 283 284 277 285 288 285 280 282 283 283 283 285 285 285 286 287 287 286 287 282 280 280 276 277 277 273 272 275 275 276 277 276 278 278 278 279 279 278 278 278 278 278
284 284 282 282 285 278 280 280 281 283 284 285 285 284 286 285 284 285 285 282 281 276 273 276 274 276 275 273 274 275 275 274 274 275 278 278 278 278 278 278 278 277 277 277
280 282 282 280 279 276 278 278 282 281 283 284 284 283 283 282 282 280 281 280 278 276 276 276 277 278 274 276 278 275 274 271 269 273 274 275 276 276 276 277 277 277 276 276
274 275 275 279 280 280 280 281 280 280 280 280 280 279 281 280 280 279 281 280 277 278 276 277 277 278 277 277 277 276 275 274 274 275 275 276 275 274 275 276 275 275 275 274
270 274 278 273 272 273 275 275 279 274 276 275 270 272 274 268 270 273 271 271 274 276 277 277 275 273 272 272 274 275 276 275 275 275 275 274 275 275 273 270 274 274 274 274
Wind_Speed
14 14 10 8 11 8 8 4 3 1 12 2 2 5 5 4 3 2 4 4 7 5 4 5 8 9 8 4 7 4 4 4 4 8 2 2 2 7 6 4 5 3 2 8
12 12 13 11 10 11 6 2 1 5 4 4 4 1 1 4 6 5 5 7 7 5 7 4 5 4 2 4 5 3 3 3 3 4 1 2 5 5 5 3 2 6 4 7
14 12 9 9 10 12 13 3 2 1 2 0 3 8 6 10 4 3 5 4 3 3 6 8 3 5 2 1 3 4 3 3 6 11 3 3 4 6 7 9 3 7 13 22
16 16 16 15 14 13 11 3 3 4 3 5 10 1 3 2 6 3 3 4 9 7 5 6 6 4 3 2 4 2 1 6 6 8 6 5 5 6 11 11 14 9 21 12
18 15 14 15 16 17 13 3 3 3 2 2 12 13 10 12 7 4 4 3 6 5 7 9 6 5 4 5 3 6 4 3 3 5 8 11 17 16 15 18 15 17 23 22
15 18 19 16 15 19 8 10 8 2 5 5 6 8 16 16 10 6 13 11 5 7 13 11 6 4 6 4 4 5 4 3 2 11 4 6 11 16 17 14 14 15 17 23
16 18 21 21 20 17 21 6 3 3 4 10 13 8 15 15 14 15 4 9 14 5 6 5 4 3 3 6 10 9 5 3 2 3 2 10 7 2 7 17 17 13 8 8
18 19 20 22 24 22 22 16 6 4 9 6 7 14 10 10 9 12 9 4 3 6 4 2 0 1 2 7 12 14 14 9 5 6 5 11 13 5 6 7 7 8 14 6
18 19 20 22 22 19 19 24 25 7 4 13 11 7 9 7 5 3 7 1 2 2 3 3 6 6 6 4 3 4 8 12 9 8 7 7 2 3 3 4 6 5 5 5
19 19 20 21 22 25 24 19 17 9 2 3 5 8 9 6 5 3 2 5 2 4 5 7 5 5 6 5 6 5 4 5 16 15 11 4 7 5 2 2 6 4 5 5
18 17 18 20 20 21 24 18 19 16 4 4 5 10 4 2 7 6 4 3 2 3 6 4 3 5 6 4 6 7 8 7 5 4 7 11 5 4 7 3 3 5 5 6
18 18 18 18 19 21 20 12 18 17 8 2 6 21 33 28 12 6 6 2 5 5 4 3 2 3 3 4 5 1 5 7 5 8 6 1 7 3 3 5 5 5 5 6
20 21 20 19 19 19 21 18 16 7 1 3 2 6 17 20 23 13 5 3 4 3 2 2 2 3 3 3 4 2 4 3 3 2 4 6 7 4 3 6 4 4 2 5
23 22 20 21 21 20 20 17 18 13 2 2 3 2 6 11 16 17 15 4 5 5 2 3 2 2 4 3 2 5 4 6 6 5 4 4 5 7 6 6 5 6 5 6
24 23 22 21 21 21 21 23 19 19 5 2 2 2 5 8 9 10 8 10 6 2 3 3 4 2 3 1 1 4 6 8 5 6 6 4 5 4 7 9 8 7 7 6
27 26 23 21 20 19 12 3 17 24 22 1 2 4 1 1 3 5 1 2 1 2 3 2 2 1 4 4 4 6 6 5 4 4 2 4 1 3 3 7 7 7 8 6
27 26 24 23 21 18 5 3 4 15 21 2 2 2 1 0 1 1 1 2 0 0 1 3 2 2 3 2 4 4 7 6 5 3 5 1 2 2 4 5 7 11 12 10
28 25 25 22 20 16 13 19 6 8 0 2 3 1 1 5 2 2 0 1 1 0 0 1 2 1 1 5 4 4 2 5 4 5 1 2 6 6 6 9 9 8 7 5
40 28 25 14 9 6 4 7 13 13 5 2 2 4 4 4 1 1 1 1 1 0 2 2 3 2 5 4 6 6 6 5 6 5 6 7 7 7 6 6 6 7 5 4
41 29 6 3 5 10 11 5 2 2 2 2 3 3 1 3 2 1 2 2 2 2 1 1 3 3 3 2 3 2 3 6 9 6 4 5 4 6 5 5 4 5 4 3
10 3 3 7 14 4 1 3 3 0 1 1 2 2 3 1 3 2 2 2 2 2 2 2 2 3 4 4 5 4 3 4 3 3 3 5 6 6 5 4 4 4 2 2
12 20 13 6 3 2 3 1 0 2 3 2 4 3 2 2 1 2 2 2 2 3 2 2 3 3 3 3 3 5 4 6 7 7 8 10 10 9 6 4 3 3 5 7
9 7 4 1 3 3 4 5 3 1 2 2 2 2 2 2 1 2 2 3 2 2 2 3 4 3 3 2 2 4 6 9 8 6 8 8 6 4 4 4 5 8 11 12
4 3 4 0 1 1 2 2 2 1 1 3 3 2 2 1 2 1 3 2 2 2 1 4 2 3 4 3 1 2 2 3 3 3 4 4 4 6 8 11 12 13 17 18
3 3 2 1 1 2 2 1 0 3 1 2 3 3 2 2 3 2 3 2 2 4 4 2 2 4 3 1 2 2 1 1 3 3 4 8 9 11 16 19 19 19 20 19
3 5 3 1 1 2 2 3 2 3 1 1 2 3 3 2 2 2 3 5 4 2 2 2 2 3 4 4 4 4 5 7 10 12 14 16 16 15 18 22 21 21 21 22
4 3 2 2 2 2 1 1 2 2 2 1 2 4 3 1 3 1 2 4 2 2 2 1 2 3 5 4 6 8 10 11 14 16 16 17 20 18 17 11 21 22 23 24
Wind_Direction
245 255 257 279 285 296 246 207 200 167 163 204 227 223 190 154 214 144 203 151 188 226 226 237 229 227 203 162 153 199 218 177 233 215 10 26 161 192 168 163 231 242 193 267
248 240 237 251 259 247 248 253 196 174 193 233 211 272 236 233 184 194 172 213 203 179 213 242 232 203 350 146 181 187 212 227 294 298 69 103 202 200 187 104 87 201 213 264
256 245 241 242 238 241 263 157 231 192 192 316 231 255 260 249 240 238 175 201 108 178 203 201 227 222 182 160 199 130 175 220 208 249 236 120 199 189 192 191 168 254 231 266
248 253 251 237 241 221 226 249 216 176 196 204 213 201 10 266 220 223 220 207 211 184 232 218 224 217 229 215 169 43 164 241 220 253 267 265 241 214 185 197 219 212 269 242
259 257 256 259 231 235 209 267 214 172 155 186 206 210 219 246 248 150 257 241 219 227 243 240 222 195 190 214 172 175 183 273 207 264 235 253 264 250 230 233 240 241 250 268
254 253 253 252 247 222 231 221 256 300 189 187 191 206 215 222 221 240 252 245 226 214 230 235 246 203 153 187 205 214 222 203 203 272 216 277 271 240 218 225 229 225 241 246
252 259 250 248 248 245 234 244 234 222 264 217 221 220 207 213 205 213 217 209 230 241 103 91 63 61 231 216 226 180 205 225 209 249 113 262 265 276 221 216 239 219 254 255
244 250 260 254 247 245 252 260 238 211 245 252 227 225 219 227 224 221 237 228 207 147 102 100 232 294 298 232 228 215 206 225 249 251 232 283 286 207 195 173 258 206 224 239
253 255 251 253 253 246 249 252 252 281 239 228 222 230 216 227 196 164 225 128 138 65 144 164 189 210 198 223 270 20 210 225 239 229 236 251 252 187 154 122 276 207 162 163
252 253 256 257 252 247 256 268 256 230 278 242 156 213 201 178 177 203 144 169 176 165 202 214 190 214 188 205 197 184 178 207 224 234 246 242 252 144 153 163 272 160 161 168
247 252 258 261 262 253 235 248 259 245 258 240 227 244 190 184 192 193 152 113 184 171 215 221 214 199 200 195 201 181 179 180 206 229 254 266 129 77 178 193 163 163 160 170
250 254 257 263 266 263 239 234 252 263 237 287 253 247 235 228 219 215 183 232 173 184 197 185 187 223 158 182 239 89 216 195 185 194 213 348 199 199 196 172 160 191 173 179
250 252 254 263 269 263 241 231 238 238 319 251 197 213 250 236 226 222 210 188 191 192 192 156 169 195 155 190 242 227 257 163 221 128 213 215 215 224 191 184 189 171 193 162
249 252 254 259 263 265 247 229 223 212 139 259 256 357 266 277 244 225 223 180 145 130 128 194 156 188 178 217 271 212 191 140 195 257 277 302 260 232 199 187 168 159 147 162
251 252 254 256 264 267 264 241 228 214 196 279 298 353 237 255 281 242 221 185 151 158 152 198 201 164 141 174 130 242 186 192 179 223 203 189 227 230 175 178 186 168 148 141
252 252 251 250 256 262 258 216 216 222 207 182 267 0 276 307 323 270 226 160 126 164 188 165 215 103 162 191 215 247 199 203 189 228 178 186 120 353 182 182 176 162 157 143
248 245 244 245 247 243 203 244 125 188 180 175 230 227 325 209 24 9 45 24 331 181 154 205 197 191 192 209 228 205 205 206 206 185 125 140 174 188 103 120 131 138 115 122
237 244 238 237 236 239 232 235 219 150 321 220 208 216 93 184 171 180 278 150 127 239 79 87 170 149 231 248 232 229 136 130 134 150 112 156 117 94 87 103 113 105 106 112
230 233 223 215 205 193 208 212 215 217 202 276 92 167 208 152 122 94 77 98 172 114 208 196 160 170 224 240 217 202 188 166 167 114 105 101 106 113 100 98 104 118 121 111
219 188 142 146 197 141 137 121 182 186 159 164 170 149 179 125 137 137 114 212 206 209 207 123 223 253 285 317 320 319 196 156 135 109 116 121 126 137 129 117 106 111 122 120
113 109 86 104 134 103 64 209 151 31 323 180 103 133 142 238 130 166 204 170 153 191 220 203 248 266 253 303 312 321 284 153 115 132 112 110 130 144 137 135 138 143 165 202
111 110 105 91 46 59 114 28 70 164 214 160 146 179 140 141 165 126 159 157 142 221 102 83 264 256 293 343 350 10 52 115 101 106 109 113 121 137 139 160 190 236 275 286
86 59 66 80 292 84 165 197 276 260 178 175 153 111 114 109 67 90 129 157 155 94 86 234 234 292 330 318 9 49 56 92 102 95 109 120 127 151 193 224 253 272 272 275
66 74 65 68 77 306 172 168 164 125 181 137 103 84 92 112 81 33 116 56 96 71 358 241 259 283 300 288 29 71 78 85 118 142 156 174 209 248 265 265 274 273 271 281
76 41 88 47 236 229 238 205 286 13 13 108 110 79 78 53 104 39 110 72 252 202 228 237 301 335 345 31 26 26 335 269 267 252 234 252 266 269 279 283 283 276 271 272
79 50 69 282 63 37 32 31 55 20 19 69 41 109 91 72 103 119 202 145 221 256 236 283 334 10 11 5 341 315 277 268 270 271 274 280 277 267 274 288 282 277 271 264
50 14 26 104 88 162 310 37 2 11 99 137 108 67 200 95 51 350 203 190 240 269 304 303 275 275 288 287 296 291 287 282 281 282 284 281 289 288 275 268 275 275 272 265